Regional Weather Roundup
Issued by NWS Charleston, SC

Current Version | Previous Version | Text Only | Print | Product List | Glossary Off
Versions: 1 2 3 4 5 6 7 8 9 10 11 12 13 14 15 16 17 18 19 20 21 22 23 24 25 26 27 28 29 30 31 32 33 34 35 36 37 38 39 40 41 42 43 44 45 46 47 48 49 50

000
ASUS42 KCHS 210725
RWRCHS

REGIONAL WEATHER ROUNDUP
NATIONAL WEATHER SERVICE CHARLESTON SC
300 AM EDT SUN SEP 21 2014

NOTE: "FAIR" INDICATES FEW OR NO CLOUDS BELOW 12,000 FEET WITH NO
SIGNIFICANT WEATHER AND/OR OBSTRUCTIONS TO VISIBILITY.

NOT ALL STATIONS ARE QUALITY CONTROLLED BY THE NATIONAL
WEATHER SERVICE. USE DATA WITH CAUTION...ESPECIALLY
DEWPOINT OBSERVATIONS.

SCZ027-030-031-034>040-042>050-210800-
...SOUTH CAROLINA...

CITY           SKY/WX    TMP DP  RH WIND       PRES   REMARKS
N CHARLESTON   MOCLDY    70  64  81 N7        29.88F
WATERFRONT PRK   N/A     73 N/A N/A NW8         N/A
FORT JOHNSON   NOT AVBL
MOUNT PLEASANT FAIR      70  64  83 N6        29.87S
JOHNS ISLAND   SUNNY     70  70 100 CALM      29.88F
PINOPOLIS        N/A     75  66  73 VRB17     29.81F
MONCKS CORNER    N/A     73  68  83 N7        29.88F
SUMMERVILLE    FAIR      68  64  88 NW3       29.90
BEAUFORT MCAS  CLEAR     68  63  84 S7        29.91F
BEAUFORT ARPT  FAIR      68  64  88 NW7       29.90F
HILTON HEAD IS CLEAR     72  64  78 N6        29.92S
GEORGETOWN     NOT AVBL
WALTERBORO     MOSUNNY   68  68 100 NW5       29.92F
ORANGEBURG     PTCLDY    65  60  84 NW5       29.94F
BARNWELL       FAIR      64  61  88 NW3       29.96F
AIKEN          FAIR      63  63 100 CALM      30.00S
MANNING        FAIR      68  63  83 NW6       29.90F
KINGSTREE      NOT AVBL
COLUMBIA       PTCLDY    69  59  70 NW6       29.95F
SUMTER         PTCLDY    67  60  78 NW10      29.91F
FLORENCE       MOCLDY    69  61  75 N9        29.89F
MYRTLE BEACH   CLOUDY    70  64  83 N14       29.84S
N MYRTLE BEACH CLOUDY    69  67  93 N8        29.83F

$$

GAZ063-065-086>088-099>101-113>116-118-119-134-136>141-150-210800-
...GEORGIA...

CITY           SKY/WX    TMP DP  RH WIND       PRES   REMARKS
SAVANNAH ARPT  PTCLDY    68  61  78 NW6       29.93F
HUNTER AAF     FAIR      67  63  86 NW6       29.91F
FORT STEWART   CLEAR     65  61  86 NW3       29.93F
STATESBORO     NOT AVBL
SYLVANIA       SUNNY     66  65  97 CALM      29.95F
CLAXTON        FAIR     N/A N/A N/A CALM      29.95F HAZE
THOMSON        CLEAR     61  61 100 CALM      30.03F
AUGUSTA-BUSH   CLEAR     59  59 100 CALM      29.96F
AUGUSTA-DANIEL CLEAR     68  60  75 N7        29.98F
SWAINSBORO     FAIR      63  63 100 NW5       29.98S
VIDALIA        CLEAR     64  63  94 N5        29.96F
ALMA           CLEAR     62  60  93 CALM      29.96F
WAYCROSS       NOT AVBL
JESUP          FAIR      70  64  83 CALM      29.95S
BRUNSWICK      CLEAR     68  63  83 CALM      29.94F
SAINT SIMONS   CLEAR     68  63  84 NW6       29.93F

$$

SCZ027-028-034-036>038-045-046-048>050-GAZ119-141-210800-
...LAKE AND SUPPLEMENTAL COASTAL OBSERVATIONS...

STATION/POSITION TIME  TEMP    WIND        PRES    WAVE   SWELL
                       AIR SEA DIR/SP/G            HT/PER HT/PER/DIR
                 (UTC) (F)     (DEG/KT/KT) (MB)    (FT/S) (FT/S/D)
UPR LAKE MARION  NOT AVBL
WINYAH BAY       0600   69     330/  8     1011.0S
LAKE MURRAY      0600   68     340/  1/  6 1014.2F
ACE BASIN NERRS  0700   68     330/  2     1012.0F
FORT PULASKI     0700   69     310/  8/ 10 1013.2F
SAPELO ISLAND    0600   69     340/  6     1014.0S

$$

ANZ835-935-AMZ111-154-330-350-352-354-374-450-454-472-210800-
...C-MAN AND BUOY OBSERVATIONS...

STATION/POSITION TIME  TEMP    WIND        PRES    WAVE   SWELL
                       AIR SEA DIR/SP/G            HT/PER HT/PER/DIR
                 (UTC) (F)     (DEG/KT/KT) (MB)    (FT/S) (FT/S/D)
FOLLY BEACH CMAN 0700   72     330/  8/ 11 1011.8F
BUOY 41004       0700   75 81  340/ 19/ 23 1009.4F   7/ 8
BUOY 41008       0700   76 83   10/ 16/ 19 1013.0R   5/ 8   3/ 90/ 8
5E ST. MARYS GA  0700      83                N/A     5/ 8
FRYING PAN BUOY  NOT AVBL
BUOY 41025       0700   76     110/ 21/ 25 1007.6F  10/ 9   7/ 80/ 9
CAPE LOOKOUT NC  0700   72      20/ 21/ 26 1006.3F
BUOY 41002       0624   78 82  200/ 21/ 27 1009.0F   9/ 7   3/ 70/10
BUOY 41010       0700   80 84  290/ 14/ 19 1011.1R   4/ 6   3/ 20/ 9
BUOY 41012       NOT AVBL
ST AUGUSTINE FL  0700   70     310/  7/  9 1013.9F
CAPERS NEARSHORE 0600   72     350/ 16/ 19   N/A
FRIPP NEARSHORE  NOT AVBL


$$


USA.gov is the U.S. government's official web portal to all federal, state and local government web resources and services.